******************************************************************************* JPL/HORIZONS (2022 AP7) 2025-Dec-12 17:59:33 Rec #:50493959 (+COV) Soln.date: 2024-Mar-12_09:19:43 # obs: 45 (2017-2022) IAU76/J2000 helio. ecliptic osc. elements (au, days, deg., period=Julian yrs): EPOCH= 2459197.5 ! 2020-Dec-14.00 (TDB) Residual RMS= .22103 EC= .7151250329114508 QR= .8333931889569398 TP= 2459669.3029520838 OM= 192.3885556556997 W= 113.5597227117648 IN= 13.82944202301329 A= 2.925470066655214 MA= 267.0667255185153 ADIST= 5.017546944353487 PER= 5.00382 N= .196974763 ANGMOM= .020566212 DAN= 2.00147 DDN= 1.11163 L= 306.5719833 B= 12.6566264 MOID= .0470703 TP= 2022-Mar-30.8029520838 Asteroid physical parameters (km, seconds, rotational period in hours): GM= n.a. RAD= n.a. ROTPER= n.a. H= 17.33 G= .150 B-V= n.a. ALBEDO= n.a. STYP= n.a. ASTEROID comments: 1: soln ref.= JPL#9, PHA OCC=1 2: source=ORB ******************************************************************************* ******************************************************************************* Ephemeris / WWW_USER Fri Dec 12 17:59:33 2025 Pasadena, USA / Horizons ******************************************************************************* Target body name: (2022 AP7) {source: JPL#9} Center body name: Earth (399) {source: DE441} Center-site name: GEOCENTRIC ******************************************************************************* Start time : A.D. 2332-Apr-01 00:00:00.0000 UT Stop time : A.D. 2332-May-01 00:00:00.0000 UT Step-size : 1440 minutes ******************************************************************************* Target pole/equ : undefined Target radii : undefined Center geodetic : 0.0, 0.0, -6378.137 {E-lon(deg),Lat(deg),Alt(km)} Center cylindric: 0.0, 0.0, 0.0 {E-lon(deg),Dxy(km),Dz(km)} Center pole/equ : ITRF93 {East-longitude positive} Center radii : 6378.137, 6378.137, 6356.752 km {Equator_a, b, pole_c} Target primary : Sun Vis. interferer : MOON (R_eq= 1737.400) km {source: DE441} Rel. light bend : Sun {source: DE441} Rel. lght bnd GM: 1.3271E+11 km^3/s^2 Small-body perts: Yes {source: SB441-N16} Atmos refraction: NO (AIRLESS) RA format : HMS Time format : CAL Calendar mode : Mixed Julian/Gregorian EOP file : eop.251212.p260310 EOP coverage : DATA-BASED 1962-JAN-20 TO 2025-DEC-12. PREDICTS-> 2026-MAR-09 Units conversion: 1 au= 149597870.700 km, c= 299792.458 km/s, 1 day= 86400.0 s Table cut-offs 1: Elevation (-90.0deg=NO ),Airmass (>38.000=NO), Daylight (NO ) Table cut-offs 2: Solar elongation ( 0.0,180.0=NO ),Local Hour Angle( 0.0=NO ) Table cut-offs 3: RA/DEC angular rate ( 0.0=NO ) ******************************************************************************* Initial IAU76/J2000 heliocentric ecliptic osculating elements (au, days, deg.): EPOCH= 2459197.5 ! 2020-Dec-14.00 (TDB) Residual RMS= .22103 EC= .7151250329114508 QR= .8333931889569398 TP= 2459669.3029520838 OM= 192.3885556556997 W= 113.5597227117648 IN= 13.82944202301329 Equivalent ICRF heliocentric cartesian coordinates (au, au/d): X=-3.559693032224657E+00 Y= 2.138356210695336E+00 Z= 1.884055314618560E-01 VX= 9.618362686228486E-04 VY=-6.261447032579122E-03 VZ=-1.044900459103540E-03 Asteroid physical parameters (km, seconds, rotational period in hours): GM= n.a. RAD= n.a. ROTPER= n.a. H= 17.33 G= .150 B-V= n.a. ALBEDO= n.a. STYP= n.a. ******************************************************************************* Date__(UT)__HR:MN delta deldot *************************************************** $$SOE 2332-Apr-01 00:00 1.04005967050148 -9.3943443 2332-Apr-02 00:00 1.03478960400522 -8.8560481 2332-Apr-03 00:00 1.02983104758047 -8.3156631 2332-Apr-04 00:00 1.02518505904640 -7.7737017 2332-Apr-05 00:00 1.02085239777414 -7.2306853 2332-Apr-06 00:00 1.01683351938295 -6.6871446 2332-Apr-07 00:00 1.01312856945042 -6.1436229 2332-Apr-08 00:00 1.00973737587257 -5.6006776 2332-Apr-09 00:00 1.00665943997432 -5.0588824 2332-Apr-10 00:00 1.00389392702438 -4.5188272 2332-Apr-11 00:00 1.00143965753244 -3.9811153 2332-Apr-12 00:00 0.99929510140610 -3.4463560 2332-Apr-13 00:00 0.99745837744179 -2.9151538 2332-Apr-14 00:00 0.99592726025645 -2.3880939 2332-Apr-15 00:00 0.99469919542892 -1.8657285 2332-Apr-16 00:00 0.99377132164894 -1.3485671 2332-Apr-17 00:00 0.99314049689497 -0.8370724 2332-Apr-18 00:00 0.99280332498520 -0.3316627 2332-Apr-19 00:00 0.99275617947803 0.1672815 2332-Apr-20 00:00 0.99299522329246 0.6594096 2332-Apr-21 00:00 0.99351642375224 1.1443936 2332-Apr-22 00:00 0.99431556346833 1.6219207 2332-Apr-23 00:00 0.99538824761146 2.0916880 2332-Apr-24 00:00 0.99672990800797 2.5533973 2332-Apr-25 00:00 0.99833580451001 3.0067505 2332-Apr-26 00:00 1.00020102437012 3.4514475 2332-Apr-27 00:00 1.00232048077061 3.8871856 2332-Apr-28 00:00 1.00468891192115 4.3136619 2332-Apr-29 00:00 1.00730088205242 4.7305775 2332-Apr-30 00:00 1.01015078518299 5.1376426 2332-May-01 00:00 1.01323285187729 5.5345815 $$EOE ******************************************************************************* Column meaning: TIME Times PRIOR to 1962 are UT1, a mean-solar time closely related to the prior but now-deprecated GMT. Times AFTER 1962 are in UTC, the current civil or "wall-clock" time-scale. UTC is kept within 0.9 seconds of UT1 using integer leap-seconds for 1972 and later years. Conversion from the internal Barycentric Dynamical Time (TDB) of solar system dynamics to the non-uniform civil UT time-scale requested for output has not been determined for UTC times after the next July or January 1st. Therefore, the last known leap-second is used as a constant over future intervals. Time tags refer to the UT time-scale conversion from TDB on Earth regardless of observer location within the solar system, although clock rates may differ due to the local gravity field and no analog to "UT" may be defined for that location. Any 'b' symbol in the 1st-column denotes a B.C. date. First-column blank (" ") denotes an A.D. date. CALENDAR SYSTEM Mixed calendar mode was active such that calendar dates after AD 1582-Oct-15 (if any) are in the modern Gregorian system. Dates prior to 1582-Oct-5 (if any) are in the Julian calendar system, which is automatically extended for dates prior to its adoption on 45-Jan-1 BC. The Julian calendar is useful for matching historical dates. The Gregorian calendar more accurately corresponds to the Earth's orbital motion and seasons. A "Gregorian-only" calendar mode is available if such physical events are the primary interest. NOTE: "n.a." in output means quantity "not available" at the print-time. 'delta deldot' = Apparent range ("delta", light-time aberrated) and range-rate ("delta-dot") of the target center relative to the observer. A positive "deldot" means the target center is moving away from the observer, negative indicates movement toward the observer. Units: AU and KM/S Computations by ... Solar System Dynamics Group, Horizons On-Line Ephemeris System 4800 Oak Grove Drive, Jet Propulsion Laboratory Pasadena, CA 91109 USA General site: https://ssd.jpl.nasa.gov/ Mailing list: https://ssd.jpl.nasa.gov/email_list.html System news : https://ssd.jpl.nasa.gov/horizons/news.html User Guide : https://ssd.jpl.nasa.gov/horizons/manual.html Connect : browser https://ssd.jpl.nasa.gov/horizons/app.html#/x API https://ssd-api.jpl.nasa.gov/doc/horizons.html command-line telnet ssd.jpl.nasa.gov 6775 e-mail/batch https://ssd.jpl.nasa.gov/ftp/ssd/horizons_batch.txt scripts https://ssd.jpl.nasa.gov/ftp/ssd/SCRIPTS Author : Jon.D.Giorgini@jpl.nasa.gov ******************************************************************************* !$$SOF COMMAND = '2022 AP7' QUANTITIES = '20' START_TIME = '2332-04-01' STEP_SIZE = '1 day' STOP_TIME = '2332-05-01'